Data for 04/08/2007

Time Sea-Level Adjusted Pressure Absolute Pressure Temperature Relative Humidity Dew Point   
(mb) (inHg) (mb) (inHg) (C) (F) (%) (C) (F)
00:05 1013 29.91 843 24.89 -4.7 23.5 82 -7.3 18.8
00:10 1013 29.91 843 24.89 -4.8 23.4 82 -7.3 18.8
00:15 1014 29.94 843 24.89 -4.8 23.4 82 -7.4 18.7
00:20 1014 29.94 843 24.89 -4.8 23.4 83 -7.3 18.9
00:25 1014 29.94 843 24.89 -4.9 23.2 83 -7.3 18.8
00:30 1014 29.94 843 24.89 -4.8 23.3 83 -7.3 18.8
00:35 1013 29.91 843 24.89 -4.8 23.3 83 -7.3 18.8
00:40 1014 29.94 843 24.89 -4.8 23.3 83 -7.4 18.7
00:45 1014 29.94 843 24.89 -4.9 23.2 83 -7.4 18.7
00:50 1013 29.91 843 24.89 -4.9 23.2 83 -7.4 18.7
00:55 1014 29.94 843 24.89 -4.9 23.2 83 -7.4 18.8
01:00 1013 29.91 843 24.89 -4.9 23.2 83 -7.4 18.7
01:05 1013 29.91 843 24.89 -4.9 23.2 83 -7.4 18.8
01:10 1014 29.94 843 24.89 -4.9 23.2 83 -7.4 18.7
01:15 1014 29.94 843 24.89 -4.9 23.2 83 -7.3 18.8
01:20 1013 29.91 843 24.89 -4.9 23.2 83 -7.4 18.8
01:25 1013 29.91 843 24.89 -4.9 23.1 83 -7.4 18.8
01:30 1014 29.94 843 24.89 -5 23.1 83 -7.4 18.8
01:35 1014 29.94 843 24.89 -5 23 83 -7.4 18.6
01:40 1014 29.94 843 24.89 -5 23 83 -7.5 18.6
01:45 1014 29.94 843 24.89 -5 23 83 -7.4 18.6
01:50 1014 29.94 843 24.89 -5 23.1 83 -7.5 18.6
01:55 1013 29.91 843 24.89 -5.1 22.9 82 -7.6 18.3
02:00 1013 29.91 843 24.89 -5.1 22.9 83 -7.5 18.5
02:05 1013 29.91 843 24.89 -5.1 22.9 83 -7.4 18.6
02:10 1013 29.91 843 24.89 -5.1 22.9 84 -7.4 18.7
02:15 1013 29.91 842 24.86 -5.1 22.9 84 -7.4 18.6
02:20 1013 29.91 842 24.86 -5 23 83 -7.4 18.6
02:25 1013 29.91 842 24.86 -5 22.9 84 -7.4 18.7
02:30 1013 29.91 842 24.86 -5 23 83 -7.4 18.7
02:35 1013 29.91 842 24.86 -4.9 23.1 84 -7.3 18.8
02:40 1013 29.91 842 24.86 -4.9 23.2 83 -7.4 18.7
02:45 1013 29.91 842 24.86 -5 23.1 83 -7.5 18.6
02:50 1013 29.91 842 24.86 -5 23 83 -7.4 18.7
02:55 1013 29.91 842 24.86 -5.1 22.9 84 -7.4 18.7
03:00 1013 29.91 842 24.86 -5.1 22.8 84 -7.4 18.6
03:05 1013 29.91 842 24.86 -5.1 22.8 84 -7.5 18.6
03:10 1013 29.91 842 24.86 -5.2 22.7 83 -7.5 18.4
03:15 1013 29.91 842 24.86 -5.2 22.6 84 -7.6 18.4
03:20 1013 29.91 842 24.86 -5.3 22.5 84 -7.6 18.3
03:25 1013 29.91 842 24.86 -5.2 22.6 84 -7.6 18.4
03:30 1013 29.91 842 24.86 -5.2 22.6 84 -7.6 18.3
03:35 1013 29.91 842 24.86 -5.3 22.5 84 -7.6 18.4
03:40 1013 29.91 842 24.86 -5.3 22.5 84 -7.6 18.4
03:45 1013 29.91 842 24.86 -5.3 22.5 84 -7.6 18.3
03:50 1013 29.91 842 24.86 -5.3 22.4 84 -7.6 18.3
03:55 1013 29.91 842 24.86 -5.4 22.3 84 -7.7 18.2
04:00 1013 29.91 842 24.86 -5.4 22.3 84 -7.7 18.1
04:05 1013 29.91 842 24.86 -5.4 22.3 84 -7.7 18.2
04:10 1013 29.91 842 24.86 -5.4 22.3 84 -7.7 18.2
04:15 1013 29.91 842 24.86 -5.4 22.3 84 -7.7 18.1
04:20 1013 29.91 842 24.86 -5.4 22.3 84 -7.7 18.1
04:25 1013 29.91 842 24.86 -5.4 22.3 84 -7.8 18
04:30 1013 29.91 842 24.86 -5.5 22.1 84 -7.8 18
04:35 1013 29.91 842 24.86 -5.5 22 84 -7.8 17.9
04:40 1013 29.91 842 24.86 -5.5 22.1 84 -7.8 17.9
04:45 1013 29.91 842 24.86 -5.5 22.1 84 -7.8 17.9
04:50 1013 29.91 842 24.86 -5.5 22.2 84 -7.8 17.9
04:55 1013 29.91 842 24.86 -5.5 22 84 -7.9 17.8
05:00 1012 29.88 842 24.86 -5.6 22 84 -7.9 17.8
05:05 1012 29.88 842 24.86 -5.6 21.9 84 -7.9 17.8
05:10 1012 29.88 842 24.86 -5.6 21.9 84 -7.9 17.8
05:15 1012 29.88 842 24.86 -5.7 21.8 85 -7.9 17.9
05:20 1012 29.88 842 24.86 -5.6 21.9 84 -7.8 17.9
05:25 1012 29.88 841 24.83 -5.6 21.9 84 -7.9 17.8
05:30 1012 29.88 841 24.83 -5.6 21.9 84 -7.8 17.9
05:35 1012 29.88 841 24.83 -5.6 22 84 -7.8 18
05:40 1012 29.88 841 24.83 -5.5 22.1 84 -7.7 18.1
05:45 1012 29.88 841 24.83 -5.5 22 85 -7.7 18.2
05:50 1012 29.88 841 24.83 -5.5 22.1 84 -7.7 18.1
05:55 1012 29.88 841 24.83 -5.5 22 84 -7.8 18
06:00 1012 29.88 841 24.83 -5.5 22.2 85 -7.7 18.2
06:05 1012 29.88 841 24.83 -5.4 22.2 84 -7.7 18.2
06:10 1012 29.88 841 24.83 -5.4 22.3 84 -7.6 18.2
06:15 1012 29.88 841 24.83 -5.3 22.4 84 -7.6 18.3
06:20 1012 29.88 841 24.83 -5.3 22.5 83 -7.7 18.2
06:25 1012 29.88 841 24.83 -5.2 22.6 83 -7.6 18.3
06:30 1012 29.88 841 24.83 -5.3 22.5 84 -7.6 18.2
06:35 1012 29.88 841 24.83 -5.4 22.3 84 -7.7 18.1
06:40 1012 29.88 841 24.83 -5.5 22 84 -7.8 18
06:45 1012 29.88 841 24.83 -5.5 22.1 85 -7.7 18.2
06:50 1012 29.88 841 24.83 -5.6 22 85 -7.7 18.2
06:55 1012 29.88 841 24.83 -5.5 22.1 85 -7.6 18.3
07:00 1012 29.88 841 24.83 -5.5 22.1 85 -7.6 18.3
07:05 1012 29.88 841 24.83 -5.5 22 85 -7.6 18.3
07:10 1012 29.88 841 24.83 -5.5 22.1 86 -7.5 18.4
07:15 1012 29.88 841 24.83 -5.3 22.4 85 -7.4 18.6
07:20 1012 29.88 841 24.83 -5.1 22.7 85 -7.3 18.8
07:25 1012 29.88 841 24.83 -5 23 84 -7.3 18.8
07:30 1012 29.88 841 24.83 -5 23 84 -7.3 18.9
07:35 1012 29.88 841 24.83 -4.8 23.4 83 -7.2 19
07:40 1012 29.88 841 24.83 -4.7 23.5 83 -7.1 19.2
07:45 1012 29.88 841 24.83 -4.5 24 82 -7.1 19.3
07:50 1012 29.88 841 24.83 -4.3 24.3 82 -7 19.5
07:55 1012 29.88 841 24.83 -4.1 24.6 81 -6.9 19.6
08:00 1012 29.88 841 24.83 -3.8 25.1 80 -6.7 19.9
08:05 1012 29.88 841 24.83 -3.4 25.8 79 -6.6 20.1
08:10 1012 29.88 841 24.83 -2.8 26.9 77 -6.4 20.5
08:15 1012 29.88 841 24.83 -2.4 27.6 75 -6.3 20.7
08:20 1012 29.88 841 24.83 -2.4 27.6 76 -6.1 21
08:25 1012 29.88 841 24.83 -2.2 28 75 -6 21.2
08:30 1012 29.88 841 24.83 -1.8 28.7 73 -6 21.2
08:35 1012 29.88 841 24.83 -1.8 28.7 74 -5.9 21.4
08:40 1012 29.88 841 24.83 -1.7 28.9 73 -5.9 21.3
08:45 1012 29.88 841 24.83 -1.6 29.1 73 -5.8 21.5
08:50 1012 29.88 841 24.83 -1.3 29.6 72 -5.8 21.5
08:55 1012 29.88 841 24.83 -1 30.2 71 -5.7 21.8
09:00 1012 29.88 841 24.83 -0.5 31.1 68 -5.7 21.7
09:05 1012 29.88 841 24.83 -0.3 31.5 67 -5.7 21.8
09:10 1012 29.88 841 24.83 -0.9 30.5 69 -5.9 21.3
09:15 1012 29.88 841 24.83 -0.5 31.1 66 -6.1 21
09:20 1012 29.88 841 24.83 -0.1 31.9 66 -5.7 21.7
09:25 1012 29.88 841 24.83 0.3 32.5 63 -5.9 21.4
09:30 1012 29.88 841 24.83 0.6 33.1 64 -5.5 22.1
09:35 1012 29.88 841 24.83 0.9 33.6 63 -5.4 22.2
09:40 1012 29.88 841 24.83 1.1 34 62 -5.4 22.3
09:45 1012 29.88 841 24.83 1.2 34.1 61 -5.5 22
09:50 1012 29.88 841 24.83 1 33.7 62 -5.6 22
09:55 1012 29.88 841 24.83 0.8 33.4 62 -5.6 21.9
10:00 1012 29.88 841 24.83 1.3 34.3 60 -5.6 21.9
10:05 1012 29.88 841 24.83 1.8 35.3 59 -5.4 22.2
10:10 1012 29.88 841 24.83 2.4 36.3 58 -5 23
10:15 1012 29.88 841 24.83 2.1 35.8 58 -5.3 22.4
10:20 1012 29.88 841 24.83 3.1 37.6 55 -5.1 22.8
10:25 1012 29.88 841 24.83 3.4 38 55 -4.9 23.2
10:30 1012 29.88 841 24.83 3.5 38.3 55 -4.6 23.7
10:35 1012 29.88 841 24.83 4 39.3 52 -4.9 23.3
10:40 1012 29.88 841 24.83 4.7 40.5 49 -5 23
10:45 1012 29.88 841 24.83 5 41 50 -4.7 23.6
10:50 1012 29.88 841 24.83 5.2 41.4 49 -4.6 23.7
10:55 1012 29.88 841 24.83 4 39.1 54 -4.6 23.7
11:00 1012 29.88 841 24.83 4.1 39.4 51 -5 22.9
11:05 1012 29.88 841 24.83 5.4 41.7 48 -4.7 23.6
11:10 1012 29.88 841 24.83 5.9 42.6 48 -4.4 24.1
11:15 1012 29.88 841 24.83 6.2 43.1 46 -4.5 24
11:20 1012 29.88 841 24.83 6.8 44.3 44 -4.5 23.9
11:25 1012 29.88 841 24.83 6.6 43.8 45 -4.5 24
11:30 1012 29.88 841 24.83 6.5 43.7 47 -4 24.8
11:35 1012 29.88 841 24.83 6.5 43.7 46 -4.2 24.4
11:40 1012 29.88 841 24.83 6.8 44.3 46 -4 24.8
11:45 1012 29.88 841 24.83 7.4 45.4 44 -4.1 24.5
11:50 1012 29.88 841 24.83 7.8 46 42 -4.2 24.4
11:55 1012 29.88 841 24.83 7.8 46.1 43 -4 24.8
12:00 1012 29.88 841 24.83 7.6 45.7 45 -3.6 25.5
12:05 1012 29.88 841 24.83 8.1 46.6 43 -3.7 25.3
12:10 1012 29.88 841 24.83 8.2 46.8 41 -4.1 24.6
12:15 1012 29.88 841 24.83 7.8 46 44 -3.8 25.2
12:20 1011 29.85 841 24.83 8.2 46.7 42 -4 24.8
12:25 1011 29.85 841 24.83 8.7 47.7 40 -3.9 24.9
12:30 1011 29.85 841 24.83 8.8 47.8 41 -3.7 25.4
12:35 1011 29.85 840 24.81 8.6 47.5 42 -3.4 25.9
12:40 1011 29.85 840 24.81 7.7 45.8 44 -3.9 25.1
12:45 1011 29.85 840 24.81 7.6 45.6 44 -4 24.9
12:50 1011 29.85 840 24.81 9 48.1 39 -4.1 24.7
12:55 1011 29.85 840 24.81 10.1 50.1 37 -4 24.8
13:00 1011 29.85 840 24.81 10.5 51 35 -4.1 24.6
13:05 1011 29.85 840 24.81 10.9 51.5 38 -3 26.5
13:10 1011 29.85 840 24.81 10.6 51 37 -3.7 25.4
13:15 1011 29.85 840 24.81 10.6 51 38 -3.3 26.1
13:20 1011 29.85 840 24.81 10.6 51 38 -3.3 26.1
13:25 1011 29.85 840 24.81 10 50 41 -2.7 27.1
13:30 1011 29.85 840 24.81 10.1 50.2 39 -3.2 26.2
13:35 1011 29.85 840 24.81 10.5 50.9 40 -2.6 27.3
13:40 1011 29.85 840 24.81 10.6 51.1 38 -3.2 26.3
13:45 1011 29.85 840 24.81 11.7 53 35 -3.3 26
13:50 1011 29.85 840 24.81 11.8 53.2 35 -3.2 26.2
13:55 1011 29.85 840 24.81 11.6 52.9 35 -3.2 26.2
14:00 1011 29.85 840 24.81 11.9 53.5 35 -2.8 26.9
14:05 1011 29.85 840 24.81 12 53.5 34 -3.3 26.1
14:10 1011 29.85 840 24.81 12.5 54.5 34 -3 26.6
14:15 1011 29.85 840 24.81 12.7 54.8 32 -3.4 25.8
14:20 1010 29.83 840 24.81 12.5 54.4 34 -2.9 26.9
14:25 1010 29.83 840 24.81 12.4 54.3 34 -2.9 26.7
14:30 1010 29.83 840 24.81 12.7 54.8 35 -2.5 27.6
14:35 1010 29.83 840 24.81 12.6 54.6 33 -3.1 26.5
14:40 1010 29.83 840 24.81 13.3 55.9 32 -3 26.6
14:45 1010 29.83 839 24.78 13.5 56.4 32 -2.9 26.8
14:50 1010 29.83 839 24.78 14.2 57.6 31 -2.7 27.1
14:55 1010 29.83 839 24.78 14.1 57.3 30 -3.1 26.5
15:00 1010 29.83 839 24.78 14.4 57.9 30 -2.7 27.2
15:05 1010 29.83 839 24.78 13.8 56.8 33 -2.3 27.9
15:10 1010 29.83 839 24.78 14 57.2 30 -3.4 25.9
15:15 1010 29.83 839 24.78 14.1 57.5 31 -2.6 27.3
15:20 1010 29.83 839 24.78 14.5 58.1 30 -2.9 26.7
15:25 1010 29.83 839 24.78 14.5 58.2 30 -2.8 27
15:30 1010 29.83 839 24.78 15.2 59.3 29 -2.9 26.8
15:35 1010 29.83 839 24.78 15.5 59.8 29 -2.5 27.5
15:40 1010 29.83 839 24.78 15.3 59.6 28 -3.2 26.2
15:45 1010 29.83 839 24.78 15.1 59.2 30 -2.4 27.7
15:50 1010 29.83 839 24.78 14.8 58.7 29 -3.1 26.4
15:55 1010 29.83 839 24.78 15.3 59.5 29 -2.7 27.1
16:00 1010 29.83 839 24.78 15.3 59.5 28 -3 26.6
16:05 1010 29.83 839 24.78 15.6 60 27 -3.2 26.3
16:10 1010 29.83 839 24.78 15.9 60.5 28 -2.6 27.4
16:15 1010 29.83 839 24.78 16 60.7 28 -2.6 27.3
16:20 1010 29.83 839 24.78 15.6 60.1 27 -3.3 26
16:25 1009 29.8 839 24.78 15.3 59.5 27 -3.3 26
16:30 1009 29.8 839 24.78 15.9 60.6 26 -3.6 25.5
16:35 1009 29.8 839 24.78 16.2 61.1 26 -3.2 26.2
16:40 1009 29.8 839 24.78 16.3 61.4 26 -3.3 26
16:45 1009 29.8 839 24.78 16.1 61 26 -3.4 25.9
16:50 1009 29.8 839 24.78 15.8 60.5 27 -3.2 26.3
16:55 1009 29.8 838 24.75 15.9 60.6 25 -3.8 25.1
17:00 1009 29.8 838 24.75 16.2 61.2 26 -3 26.6
17:05 1009 29.8 838 24.75 16.2 61.2 26 -3.3 26.1
17:10 1009 29.8 838 24.75 16.1 61 25 -3.6 25.5
17:15 1009 29.8 838 24.75 16.2 61.1 23 -4.9 23.2
17:20 1009 29.8 838 24.75 14.9 58.8 26 -4.2 24.4
17:25 1009 29.8 838 24.75 15.7 60.3 25 -3.9 24.9
17:30 1009 29.8 838 24.75 16.3 61.3 25 -3.7 25.4
17:35 1009 29.8 838 24.75 16.6 61.8 24 -4.2 24.5
17:40 1009 29.8 838 24.75 16.7 62 24 -4.2 24.5
17:45 1009 29.8 838 24.75 16.6 61.8 24 -4.2 24.5
17:50 1009 29.8 838 24.75 16.5 61.7 23 -4.4 24
17:55 1009 29.8 838 24.75 16.4 61.6 24 -4.1 24.6
18:00 1009 29.8 838 24.75 15.9 60.6 24 -4.4 24
18:05 1009 29.8 838 24.75 16 60.9 24 -4.5 23.9
18:10 1009 29.8 838 24.75 16.2 61.2 25 -3.9 24.9
18:15 1009 29.8 838 24.75 16.2 61.1 24 -4.2 24.5
18:20 1009 29.8 838 24.75 16 60.8 24 -4.3 24.3
18:25 1009 29.8 838 24.75 15.2 59.4 26 -3.8 25.1
18:30 1009 29.8 838 24.75 14.8 58.7 27 -4.1 24.7
18:35 1009 29.8 838 24.75 14.8 58.6 27 -4.1 24.6
18:40 1009 29.8 838 24.75 14.8 58.7 26 -4.5 23.9
18:45 1009 29.8 838 24.75 14.7 58.4 26 -4.4 24.1
18:50 1009 29.8 838 24.75 14.5 58.1 28 -3.9 24.9
18:55 1009 29.8 838 24.75 14.5 58 27 -4.2 24.4
19:00 1009 29.8 838 24.75 14.6 58.2 27 -4.2 24.5
19:05 1009 29.8 838 24.75 14.3 57.7 27 -4.3 24.3
19:10 1009 29.8 838 24.75 13.9 57.1 28 -4.2 24.4
19:15 1009 29.8 838 24.75 13.9 57.1 28 -4.3 24.3
19:20 1009 29.8 838 24.75 13.9 57 28 -4.2 24.5
19:25 1009 29.8 838 24.75 13.9 56.9 28 -4.2 24.4
19:30 1009 29.8 838 24.75 13.6 56.5 28 -4.3 24.3
19:35 1009 29.8 838 24.75 13.4 56.1 29 -4.3 24.2
19:40 1009 29.8 838 24.75 13.3 56 29 -4.2 24.5
19:45 1009 29.8 838 24.75 13.2 55.8 29 -4.3 24.3
19:50 1009 29.8 838 24.75 13.1 55.5 30 -4.2 24.4
19:55 1009 29.8 838 24.75 12.9 55.1 30 -4.2 24.5
20:00 1009 29.8 838 24.75 12.7 54.9 31 -4.1 24.6
20:05 1009 29.8 838 24.75 12.6 54.6 31 -4 24.8
20:10 1009 29.8 838 24.75 12.3 54.1 34 -3 26.6
20:15 1009 29.8 838 24.75 11.8 53.2 37 -2.4 27.7
20:20 1009 29.8 838 24.75 11.1 52 41 -1.5 29.3
20:25 1009 29.8 838 24.75 10 50 46 -1.2 29.9
20:30 1009 29.8 838 24.75 9.3 48.8 47 -1.5 29.3
20:35 1009 29.8 838 24.75 8.8 47.8 49 -1.4 29.4
20:40 1009 29.8 838 24.75 8.4 47.1 50 -1.4 29.5
20:45 1009 29.8 838 24.75 7.9 46.1 52 -1.2 29.8
20:50 1009 29.8 838 24.75 7.5 45.5 53 -1.4 29.5
20:55 1009 29.8 838 24.75 7.2 44.9 55 -1.2 29.8
21:00 1009 29.8 838 24.75 6.8 44.3 56 -1.4 29.4
21:05 1009 29.8 838 24.75 7 44.7 53 -1.9 28.5
21:10 1009 29.8 838 24.75 7.3 45.2 52 -1.8 28.8
21:15 1009 29.8 838 24.75 7.3 45.2 50 -2.2 28
21:20 1009 29.8 838 24.75 7 44.5 53 -2 28.3
21:25 1009 29.8 838 24.75 6.7 44.1 53 -2.2 28
21:30 1009 29.8 838 24.75 6.6 43.9 54 -2.1 28.2
21:35 1009 29.8 838 24.75 6.3 43.3 56 -1.9 28.5
21:40 1009 29.8 838 24.75 6.3 43.3 54 -2.5 27.6
21:45 1009 29.8 838 24.75 6.6 43.8 52 -2.5 27.6
21:50 1009 29.8 838 24.75 6.6 43.8 53 -2.4 27.6
21:55 1009 29.8 838 24.75 6.7 44 53 -2.3 27.8
22:00 1009 29.8 838 24.75 6.6 43.9 52 -2.6 27.4
22:05 1009 29.8 838 24.75 6.6 43.8 52 -2.5 27.6
22:10 1009 29.8 838 24.75 6.4 43.5 53 -2.4 27.6
22:15 1009 29.8 838 24.75 6.3 43.4 53 -2.4 27.6
22:20 1009 29.8 838 24.75 6 42.8 56 -2 28.4
22:25 1009 29.8 838 24.75 5.5 41.9 57 -2.4 27.6
22:30 1009 29.8 838 24.75 5.6 42 57 -2.4 27.7
22:35 1009 29.8 838 24.75 5.4 41.7 58 -2.3 27.9
22:40 1009 29.8 838 24.75 5.3 41.5 57 -2.4 27.6
22:45 1009 29.8 838 24.75 5.4 41.7 57 -2.4 27.7
22:50 1009 29.8 838 24.75 5.3 41.6 57 -2.5 27.5
22:55 1008 29.77 838 24.75 5.2 41.3 58 -2.4 27.7
23:00 1009 29.8 838 24.75 5.2 41.3 58 -2.5 27.5
23:05 1008 29.77 838 24.75 5.1 41.2 58 -2.5 27.4
23:10 1008 29.77 838 24.75 5.2 41.4 57 -2.5 27.5
23:15 1008 29.77 838 24.75 5.2 41.4 57 -2.7 27.2
23:20 1008 29.77 838 24.75 5.5 41.8 55 -2.8 27
23:25 1008 29.77 837 24.72 5.6 42.1 55 -2.7 27.1
23:30 1008 29.77 838 24.75 5.6 42 55 -2.8 27
23:35 1008 29.77 838 24.75 5.6 42 54 -3 26.7
23:40 1008 29.77 838 24.75 5.7 42.2 54 -3 26.6
23:45 1008 29.77 837 24.72 5.8 42.4 54 -2.9 26.7
23:50 1008 29.77 837 24.72 5.7 42.3 55 -2.6 27.3
23:55 1008 29.77 838 24.75 5.5 42 55 -2.8 27
24:00 1008 29.77 838 24.75 5.6 42 55 -2.8 27